• In Belarus
  • List of Countries
  • For 7 days
  • Water Temperature
  • Weather Map
  • Weather Widgets
  • user-avatar
    Login

    Hourly Weather Kalat

    Today, 17 October, Thursday

    Time Temperature Precipitation Wind Pressure Humidity
    00:00 +2°C° 0 mm 1 mps 478 mmHg 59%
    01:00 +2°C° 0 mm 1 mps 478 mmHg 59%
    02:00 +1°C° 0 mm 1 mps 477 mmHg 59%
    03:00 0°C° 0 mm 0 mps 477 mmHg 59%
    04:00 0°C° 0 mm 0 mps 477 mmHg 60%
    05:00 0°C° 0 mm 0 mps 477 mmHg 60%
    06:00 0°C° 0 mm 0 mps 477 mmHg 57%
    07:00 +1°C° 0 mm 0 mps 478 mmHg 55%
    08:00 +1°C° 0 mm 0 mps 479 mmHg 52%
    09:00 +2°C° 0.1 mm 0 mps 479 mmHg 49%
    10:00 +4°C° 0.1 mm 1 mps 479 mmHg 47%
    11:00 +5°C° 0.1 mm 1 mps 480 mmHg 44%
    12:00 +5°C° 0.2 mm 1 mps 480 mmHg 45%
    13:00 +5°C° 0.2 mm 1 mps 479 mmHg 46%
    14:00 +4°C° 0.2 mm 2 mps 479 mmHg 46%
    15:00 +3°C° 0.8 mm 2 mps 478 mmHg 57%
    16:00 +1°C° 0.8 mm 2 mps 477 mmHg 68%
    17:00 -1°C° 0.8 mm 2 mps 477 mmHg 79%
    18:00 -1°C° 0.8 mm 2 mps 476 mmHg 80%
    19:00 -2°C° 0.8 mm 2 mps 476 mmHg 81%
    20:00 -2°C° 0.8 mm 2 mps 476 mmHg 83%
    21:00 -2°C° 0.2 mm 2 mps 476 mmHg 83%
    22:00 -1°C° 0.2 mm 1 mps 476 mmHg 83%
    23:00 -1°C° 0.2 mm 1 mps 476 mmHg 83%

    Tomorrow, 18 October, Friday

    Time Temperature Precipitation Wind Pressure Humidity
    00:00 -1°C° 0 mm 1 mps 476 mmHg 83%
    01:00 -1°C° 0 mm 1 mps 476 mmHg 83%
    02:00 -1°C° 0 mm 1 mps 476 mmHg 83%
    03:00 -2°C° 0 mm 1 mps 475 mmHg 85%
    04:00 -2°C° 0 mm 1 mps 475 mmHg 86%
    05:00 -2°C° 0 mm 1 mps 475 mmHg 88%
    06:00 -2°C° 0 mm 1 mps 475 mmHg 86%
    07:00 -3°C° 0 mm 0 mps 475 mmHg 85%
    08:00 -3°C° 0 mm 0 mps 476 mmHg 83%
    09:00 -2°C° 0 mm 0 mps 476 mmHg 78%
    10:00 -1°C° 0 mm 0 mps 477 mmHg 72%
    11:00 -1°C° 0 mm 0 mps 477 mmHg 66%
    12:00 +1°C° 0.2 mm 1 mps 477 mmHg 66%
    13:00 +2°C° 0.2 mm 1 mps 477 mmHg 65%
    14:00 +2°C° 0.2 mm 1 mps 477 mmHg 64%
    15:00 +2°C° 0.4 mm 1 mps 477 mmHg 67%
    16:00 +2°C° 0.4 mm 1 mps 477 mmHg 70%
    17:00 +1°C° 0.4 mm 1 mps 477 mmHg 73%
    18:00 +1°C° 0.7 mm 1 mps 477 mmHg 75%
    19:00 +1°C° 0.7 mm 1 mps 476 mmHg 78%
    20:00 -1°C° 0.7 mm 0 mps 476 mmHg 80%
    21:00 0°C° 0.4 mm 1 mps 476 mmHg 80%
    22:00 0°C° 0.4 mm 1 mps 476 mmHg 81%
    23:00 0°C° 0.4 mm 1 mps 476 mmHg 81%

    Day after tomorrow, 19 October, Saturday

    Time Temperature Precipitation Wind Pressure Humidity
    00:00 -1°C° 0.2 mm 1 mps 475 mmHg 82%
    01:00 -3°C° 0.2 mm 2 mps 475 mmHg 83%
    02:00 -4°C° 0.2 mm 2 mps 474 mmHg 84%
    03:00 -4°C° 0 mm 2 mps 474 mmHg 82%
    04:00 -4°C° 0 mm 2 mps 474 mmHg 80%
    05:00 -4°C° 0 mm 2 mps 474 mmHg 79%
    06:00 -4°C° 0 mm 2 mps 475 mmHg 77%
    07:00 -4°C° 0 mm 2 mps 475 mmHg 75%
    08:00 -3°C° 0 mm 2 mps 476 mmHg 73%
    09:00 -2°C° 0 mm 2 mps 476 mmHg 69%
    10:00 -1°C° 0 mm 2 mps 477 mmHg 64%
    11:00 +1°C° 0 mm 2 mps 478 mmHg 60%
    12:00 +1°C° 0.1 mm 2 mps 478 mmHg 58%
    13:00 +2°C° 0.1 mm 2 mps 478 mmHg 55%
    14:00 +2°C° 0.1 mm 2 mps 478 mmHg 53%
    15:00 +2°C° 0.2 mm 2 mps 478 mmHg 56%
    16:00 +1°C° 0.2 mm 2 mps 477 mmHg 59%
    17:00 +1°C° 0.2 mm 2 mps 477 mmHg 61%
    18:00 +1°C° 0.3 mm 1 mps 477 mmHg 68%
    19:00 0°C° 0.3 mm 1 mps 476 mmHg 75%
    20:00 -1°C° 0.3 mm 1 mps 476 mmHg 82%
    21:00 -1°C° 0.7 mm 1 mps 476 mmHg 84%
    22:00 -2°C° 0.7 mm 1 mps 475 mmHg 86%
    23:00 -2°C° 0.7 mm 1 mps 475 mmHg 88%

    20 October, Sunday

    Time Temperature Precipitation Wind Pressure Humidity
    00:00 -2°C° 0.3 mm 1 mps 475 mmHg 88%
    01:00 -3°C° 0.3 mm 1 mps 474 mmHg 89%
    02:00 -3°C° 0.3 mm 1 mps 474 mmHg 89%
    03:00 -4°C° 0 mm 1 mps 474 mmHg 86%
    04:00 -4°C° 0 mm 1 mps 474 mmHg 82%
    05:00 -5°C° 0 mm 0 mps 473 mmHg 79%
    06:00 -5°C° 0 mm 0 mps 474 mmHg 74%
    07:00 -4°C° 0 mm 0 mps 474 mmHg 68%
    08:00 -3°C° 0 mm 0 mps 475 mmHg 63%
    09:00 -2°C° 0 mm 0 mps 476 mmHg 56%
    10:00 -1°C° 0 mm 0 mps 476 mmHg 49%
    11:00 0°C° 0 mm 0 mps 477 mmHg 42%
    12:00 0°C° 0 mm 0 mps 477 mmHg 41%
    13:00 +2°C° 0 mm 1 mps 477 mmHg 40%
    14:00 +2°C° 0 mm 1 mps 477 mmHg 40%
    15:00 +1°C° 0.1 mm 1 mps 477 mmHg 47%
    16:00 +1°C° 0.1 mm 1 mps 476 mmHg 54%
    17:00 0°C° 0.1 mm 1 mps 476 mmHg 60%
    18:00 -1°C° 0.3 mm 1 mps 476 mmHg 66%
    19:00 -1°C° 0.3 mm 1 mps 475 mmHg 72%
    20:00 -2°C° 0.3 mm 1 mps 475 mmHg 78%
    21:00 -2°C° 0 mm 1 mps 475 mmHg 79%
    22:00 -4°C° 0 mm 0 mps 474 mmHg 80%
    23:00 -4°C° 0 mm 0 mps 474 mmHg 82%

    21 October, Monday

    Time Temperature Precipitation Wind Pressure Humidity
    00:00 -5°C° 0 mm 0 mps 474 mmHg 82%
    01:00 -5°C° 0 mm 0 mps 474 mmHg 82%
    02:00 -5°C° 0 mm 0 mps 473 mmHg 82%
    03:00 -5°C° 0 mm 0 mps 473 mmHg 82%
    04:00 -5°C° 0 mm 0 mps 473 mmHg 82%
    05:00 -6°C° 0 mm 0 mps 473 mmHg 82%
    06:00 -5°C° 0 mm 0 mps 473 mmHg 80%
    07:00 -5°C° 0 mm 0 mps 474 mmHg 79%
    08:00 -4°C° 0 mm 0 mps 474 mmHg 78%
    09:00 -3°C° 0.1 mm 0 mps 475 mmHg 73%
    10:00 -1°C° 0.1 mm 1 mps 476 mmHg 68%
    11:00 0°C° 0.1 mm 1 mps 476 mmHg 63%
    12:00 0°C° 0.2 mm 1 mps 476 mmHg 61%
    13:00 -2°C° 0.2 mm 2 mps 476 mmHg 60%
    14:00 -1°C° 0.2 mm 2 mps 476 mmHg 59%
    15:00 -2°C° 0.2 mm 2 mps 476 mmHg 62%
    16:00 -2°C° 0.2 mm 2 mps 475 mmHg 65%
    17:00 -3°C° 0.2 mm 2 mps 475 mmHg 67%
    18:00 -4°C° 0 mm 2 mps 474 mmHg 71%
    19:00 -5°C° 0 mm 2 mps 474 mmHg 75%
    20:00 -6°C° 0 mm 2 mps 473 mmHg 78%
    21:00 -4°C° 0 mm 1 mps 473 mmHg 79%
    22:00 -4°C° 0 mm 1 mps 473 mmHg 79%
    23:00 -6°C° 0 mm 1 mps 473 mmHg 79%

    22 October, Tuesday

    Time Temperature Precipitation Wind Pressure Humidity
    00:00 -6°C° 0 mm 1 mps 472 mmHg 79%
    01:00 -6°C° 0 mm 1 mps 472 mmHg 78%
    02:00 -6°C° 0 mm 0 mps 472 mmHg 77%
    03:00 -6°C° 0 mm 0 mps 472 mmHg 74%
    04:00 -6°C° 0 mm 0 mps 472 mmHg 71%
    05:00 -6°C° 0 mm 0 mps 472 mmHg 68%
    06:00 -6°C° 0 mm 0 mps 472 mmHg 67%
    07:00 -5°C° 0 mm 0 mps 473 mmHg 66%
    08:00 -4°C° 0 mm 0 mps 474 mmHg 64%
    09:00 -2°C° 0.1 mm 1 mps 474 mmHg 64%
    10:00 -2°C° 0.1 mm 1 mps 475 mmHg 64%
    11:00 -1°C° 0.1 mm 1 mps 475 mmHg 63%
    12:00 -3°C° 0.3 mm 2 mps 475 mmHg 68%
    13:00 -3°C° 0.3 mm 2 mps 475 mmHg 73%
    14:00 -3°C° 0.3 mm 2 mps 475 mmHg 78%
    15:00 -3°C° 0.5 mm 2 mps 475 mmHg 81%
    16:00 -3°C° 0.5 mm 2 mps 474 mmHg 84%
    17:00 -4°C° 0.5 mm 2 mps 474 mmHg 88%
    18:00 -2°C° 0.6 mm 1 mps 474 mmHg 90%
    19:00 -3°C° 0.6 mm 1 mps 474 mmHg 92%
    20:00 -3°C° 0.6 mm 1 mps 473 mmHg 95%
    21:00 -4°C° 0.1 mm 1 mps 473 mmHg 94%
    22:00 -6°C° 0.1 mm 1 mps 472 mmHg 93%
    23:00 -7°C° 0.1 mm 1 mps 471 mmHg 92%
    Show more